Theta_e
274 274 274 274 274 274 274 274 274 274 274 274 274 274 274 275 275 275 275 276 276 276 276 276 276 276 277 277 278 278 278 278 279 280 279 279 281 282 282 282 283 284
273 273 273 273 273 273 273 273 273 273 273 273 273 273 274 274 274 274 274 275 275 275 276 276 276 276 276 276 276 278 279 278 277 279 279 280 279 280 280 280 280 282
272 272 272 272 272 272 272 273 273 273 273 272 273 273 273 273 273 273 273 274 274 274 274 274 274 275 275 275 276 276 277 277 277 278 280 280 280 280 280 280 280 280
272 272 272 272 272 272 272 272 272 272 272 272 272 272 272 272 272 272 272 272 272 273 273 273 273 273 273 273 274 275 275 275 276 276 276 278 278 278 279 279 279 279
271 271 271 271 271 271 271 271 271 270 271 271 271 271 270 270 270 270 270 271 271 271 271 271 271 272 272 272 273 272 273 274 274 274 274 274 275 276 276 276 276 276
270 270 270 269 269 269 269 269 269 269 269 269 270 270 269 269 269 269 269 269 269 270 269 269 270 270 270 270 270 271 271 271 272 272 272 271 273 274 274 275 274 275
267 268 268 268 268 268 267 268 268 268 268 268 269 269 269 268 267 268 268 268 268 268 268 267 267 268 268 268 268 269 269 270 270 270 269 270 271 271 272 273 273 273
267 267 265 267 267 267 267 267 267 266 267 267 267 268 268 267 267 267 267 267 267 267 267 267 267 267 267 267 267 267 268 270 269 269 268 269 269 269 270 270 269 270
266 265 266 266 265 265 266 265 265 265 265 265 265 266 267 268 266 266 266 266 266 266 266 266 266 266 266 266 266 266 268 269 270 268 267 268 268 268 268 269 269 269
265 265 264 264 263 263 263 263 263 263 264 264 264 264 264 265 266 266 265 265 264 265 265 265 265 265 265 264 265 264 265 268 269 268 266 266 266 267 268 268 269 270
263 263 262 263 262 262 262 263 262 262 263 262 262 262 263 262 263 262 262 263 262 263 263 263 263 264 265 264 264 264 264 265 266 266 266 266 266 265 268 266 267 267
263 262 262 262 263 262 262 262 261 262 261 261 261 263 261 261 261 262 262 262 262 262 262 262 262 262 263 262 262 262 263 264 264 264 266 266 266 266 265 265 265 265
262 262 262 262 261 261 261 261 261 261 260 261 261 261 260 261 261 260 261 261 262 262 262 262 262 262 261 262 262 262 261 262 263 264 265 266 265 266 266 265 265 265
260 260 261 261 261 261 261 260 260 260 260 260 260 260 260 260 260 261 262 261 261 261 263 261 261 261 260 260 261 261 261 261 263 264 265 265 264 265 265 265 265 265
259 259 260 260 261 260 260 260 261 260 260 259 260 260 260 260 261 261 261 262 262 261 261 261 262 262 260 261 262 261 261 263 266 266 265 264 264 265 265 264 264 264
259 260 261 260 260 260 260 259 259 259 259 259 260 260 259 261 260 260 260 260 261 261 261 261 262 262 265 266 267 265 265 266 267 266 264 263 264 266 266 264 263 263
259 259 260 260 260 259 259 259 261 260 259 260 260 259 261 260 260 261 260 260 260 260 260 261 261 262 265 268 270 272 268 266 266 267 266 265 264 265 264 264 264 264
260 260 260 260 260 261 260 259 259 259 259 260 260 260 261 259 259 260 260 260 260 259 259 260 260 264 266 269 270 271 270 268 267 267 267 267 265 264 264 264 264 264
260 261 260 260 260 260 260 260 259 260 260 260 260 261 259 259 261 261 260 260 259 259 259 260 260 263 265 269 270 271 272 269 267 267 267 267 267 266 265 264 263 263
262 261 261 261 262 261 261 260 260 261 261 261 260 261 261 261 260 260 260 259 260 259 260 259 259 262 265 268 270 271 271 271 267 267 267 267 267 266 265 264 262 261
262 262 262 262 262 261 261 260 261 261 261 261 261 261 261 261 261 261 261 260 259 259 259 259 260 263 265 267 269 270 271 269 265 264 264 264 264 263 262 261 260 261
263 262 261 260 260 260 260 261 260 260 260 261 261 261 261 261 261 260 260 260 261 260 259 259 260 263 265 266 268 270 270 266 262 261 261 261 261 261 260 260 260 260
261 261 260 260 260 260 259 259 261 261 261 261 261 261 262 261 261 261 261 261 261 260 260 260 260 262 264 265 266 269 268 264 260 260 260 259 259 259 259 259 259 259
262 260 259 259 258 258 259 260 260 260 260 260 260 260 260 261 261 261 261 260 260 260 260 260 260 262 263 264 265 267 266 264 262 260 259 259 259 259 259 259 259 262
260 259 259 258 257 257 257 258 259 259 259 260 260 259 259 260 260 260 260 260 260 261 262 262 261 261 263 263 264 266 266 263 262 258 258 258 258 259 259 259 259 261
258 258 257 257 257 256 256 257 258 258 258 259 258 259 259 259 260 260 260 260 261 261 260 260 259 259 260 262 263 264 265 263 262 259 259 259 259 259 258 258 258 258
Wind_Speed
7 6 6 6 5 5 4 4 4 4 4 5 5 5 5 5 6 6 6 6 5 5 6 7 6 6 7 6 6 5 4 4 5 4 4 3 3 3 4 4 4 4
7 7 5 5 5 5 5 4 4 4 4 4 4 4 4 5 6 6 6 6 6 6 6 7 7 7 7 6 7 6 6 5 5 5 5 5 4 4 4 4 4 4
7 6 7 6 5 5 5 4 4 4 4 4 4 5 5 5 5 6 6 6 6 7 7 7 7 7 7 6 6 5 5 6 7 7 6 5 5 5 4 4 4 4
7 6 6 5 5 5 4 4 5 4 4 5 5 5 4 5 5 6 6 7 7 7 7 7 7 6 6 6 6 5 5 5 5 6 6 6 6 6 6 6 5 5
6 6 5 5 4 4 4 5 5 5 5 3 4 4 5 5 5 6 6 6 6 7 7 7 7 7 7 6 6 5 5 5 6 6 6 6 5 6 6 6 6 6
6 5 5 5 4 4 5 5 4 4 4 5 5 4 4 4 5 5 6 6 6 5 6 6 7 6 6 6 5 5 5 5 5 6 5 5 5 5 4 5 6 6
5 5 5 4 4 4 4 4 3 3 4 3 3 4 4 4 4 4 4 5 5 5 5 5 5 6 5 5 5 6 6 5 5 5 5 5 4 5 5 5 6 5
5 4 3 3 4 3 4 3 3 4 3 3 4 4 3 3 4 3 3 4 4 5 5 5 4 4 5 5 5 6 6 5 6 6 5 5 4 5 5 5 4 4
4 3 3 3 3 3 4 3 3 3 3 4 3 4 4 4 4 3 4 4 4 4 4 4 4 4 4 4 4 4 5 5 5 5 4 5 5 5 5 5 5 4
3 2 3 2 3 2 3 2 3 3 3 3 3 3 3 3 3 4 3 3 3 3 3 4 4 4 4 3 3 3 4 5 5 5 4 4 4 4 5 5 5 6
1 1 2 2 2 2 2 2 3 3 3 3 3 3 3 3 4 3 3 3 3 3 3 4 3 4 4 4 3 3 3 4 4 4 4 5 4 4 4 4 4 4
1 1 1 1 1 2 2 2 2 3 3 3 2 4 4 3 3 4 3 4 4 4 3 4 3 3 4 4 4 4 4 4 4 4 4 5 5 5 4 4 4 4
0 0 0 1 1 1 1 2 3 2 3 4 3 2 3 4 4 4 4 3 4 4 4 4 4 4 4 4 4 4 4 4 4 4 4 4 4 5 5 4 4 5
1 1 1 1 1 1 2 2 2 3 3 3 2 4 4 4 4 4 4 3 4 4 5 4 4 4 4 4 4 4 4 4 4 4 5 5 5 5 5 5 5 5
2 2 2 1 1 1 2 3 3 3 4 3 3 4 3 4 4 4 4 5 5 4 4 4 4 5 4 4 5 6 4 5 6 6 5 5 5 6 5 5 5 5
2 2 2 1 1 2 3 3 3 4 3 4 4 4 4 4 4 4 4 4 5 6 5 4 4 4 5 7 8 6 6 6 5 4 4 4 6 7 7 5 5 5
2 3 1 2 3 3 3 3 4 3 3 4 4 4 4 4 4 5 5 4 4 5 5 6 5 5 7 11 14 15 9 5 5 6 5 5 5 6 7 7 5 4
2 1 1 3 2 4 3 3 3 3 4 4 4 5 5 3 4 5 5 5 5 4 4 6 5 7 11 13 15 16 13 7 5 5 6 6 5 5 5 5 7 6
2 1 2 3 3 3 3 3 3 4 4 4 5 5 4 5 6 5 6 6 5 6 6 6 6 7 10 14 15 16 16 13 6 6 6 6 6 6 5 6 6 7
2 2 2 4 3 3 3 3 3 5 5 4 4 4 5 6 5 7 6 6 6 6 7 6 6 7 10 14 16 17 18 15 6 6 6 6 6 7 6 6 6 6
2 2 2 3 4 3 3 3 4 4 4 4 4 5 6 7 7 7 7 6 6 6 6 7 7 8 11 14 16 18 19 15 7 6 5 5 6 5 6 6 6 7
2 2 3 3 3 4 4 4 4 4 5 5 5 5 5 5 6 5 7 8 7 7 7 9 7 8 12 13 16 18 20 11 6 6 6 6 6 6 6 6 5 6
4 4 3 4 3 4 4 4 4 5 5 5 6 7 7 7 7 7 6 7 8 7 8 9 7 6 10 13 14 18 16 9 7 7 6 7 7 6 6 6 6 6
3 3 3 3 4 4 4 4 5 4 5 4 6 8 8 7 7 8 7 6 7 9 7 9 9 8 11 12 14 18 16 11 8 7 7 6 7 6 6 6 6 10
3 3 3 3 4 4 4 5 6 6 6 5 6 6 8 7 7 8 8 6 6 7 10 11 10 9 10 13 16 18 16 9 9 7 7 6 7 8 6 6 6 7
2 2 2 2 4 4 4 5 5 5 6 6 6 6 7 7 7 7 9 8 7 7 8 8 9 9 7 10 14 17 19 12 8 8 8 9 8 8 8 7 6 6
Wind_Direction
71 70 74 74 69 64 56 56 47 52 46 31 27 12 7 357 354 3 3 3 3 6 6 3 2 3 0 357 353 345 348 344 344 341 332 318 286 277 282 282 279 274
65 66 67 70 67 52 48 48 43 50 45 39 23 17 356 7 360 4 0 1 3 6 7 6 5 5 1 358 352 353 355 1 357 346 338 327 312 311 294 289 280 279
68 64 63 62 61 57 50 43 46 40 44 33 30 22 7 6 2 2 5 3 3 3 8 4 6 6 0 356 352 353 359 357 359 348 342 342 347 346 326 318 304 283
64 63 62 60 55 55 51 51 43 36 31 34 28 22 11 3 8 7 10 6 8 5 5 6 7 1 3 358 357 359 357 359 354 350 348 350 357 353 343 345 326 326
65 60 57 55 50 49 50 52 44 33 31 26 25 24 17 14 9 12 9 5 7 3 4 3 2 2 358 357 358 1 359 359 356 1 359 350 350 355 345 351 344 340
60 61 60 59 52 53 53 51 40 34 26 22 20 14 26 15 16 12 7 6 2 4 4 0 360 356 356 355 355 2 358 359 353 3 4 358 347 350 351 350 349 346
66 59 54 53 53 52 61 50 34 34 27 14 9 17 22 14 18 9 8 3 1 5 6 357 358 353 354 356 356 355 354 354 352 359 2 352 353 348 356 356 351 340
66 60 59 52 62 43 53 44 29 29 21 12 28 355 4 6 11 4 6 5 6 359 359 355 352 354 349 356 356 353 350 352 354 352 354 350 353 348 344 346 343 344
75 66 59 60 63 44 40 36 21 18 17 23 7 354 349 352 352 359 359 6 360 352 346 343 343 342 344 350 350 351 341 340 344 345 344 343 348 339 338 336 346 345
84 73 65 56 60 38 33 14 15 11 2 14 354 345 349 339 341 340 353 358 348 335 338 330 331 333 334 340 341 341 335 331 332 334 332 331 330 333 336 347 345 344
91 84 74 45 39 20 12 6 1 0 355 351 349 343 335 341 335 345 339 335 325 317 321 325 319 323 325 324 332 334 330 323 323 324 324 321 317 317 325 334 335 334
80 53 48 26 6 358 353 347 344 347 341 330 337 328 327 330 328 329 326 318 309 300 298 302 311 318 319 311 312 324 326 321 313 315 315 318 314 312 313 311 311 310
72 319 275 300 307 302 321 337 327 321 327 314 312 317 318 321 323 320 311 313 305 306 299 294 302 310 313 313 310 308 312 312 312 309 311 312 307 304 302 302 305 301
243 236 238 250 265 287 301 296 300 300 289 289 310 317 313 309 304 309 305 311 297 301 297 297 293 301 304 304 299 292 294 298 293 299 305 307 306 305 301 299 297 296
244 254 234 245 275 291 291 288 279 273 279 286 292 292 292 287 292 294 306 313 311 303 301 302 297 287 283 281 288 293 274 268 276 281 291 298 302 303 301 298 298 293
240 247 246 254 266 263 257 260 265 268 272 278 280 280 284 291 296 297 292 289 297 301 305 300 292 283 275 273 276 268 265 265 266 270 279 283 291 294 294 292 289 293
234 250 241 257 249 257 267 257 266 267 273 277 282 286 283 282 284 284 281 276 274 279 289 291 288 280 275 287 295 299 301 291 279 278 270 266 268 281 290 295 292 283
237 233 241 262 269 270 268 268 276 293 287 283 287 286 277 272 269 262 265 268 268 270 272 274 276 278 287 298 300 300 299 292 278 275 276 274 268 268 274 287 296 299
252 266 277 280 275 273 284 307 302 299 291 285 277 268 279 276 264 267 265 265 263 268 270 271 277 273 284 295 300 301 300 298 286 283 282 278 276 275 279 287 290 291
293 307 305 298 306 311 307 304 297 282 278 275 274 280 270 271 270 264 265 264 263 262 264 265 269 271 278 290 298 300 301 299 292 293 289 287 286 285 283 279 278 281
335 328 315 313 321 325 323 304 289 290 295 290 288 287 288 285 290 290 285 281 275 273 274 270 266 267 275 282 290 297 299 300 298 293 286 277 274 273 272 270 271 272
7 0 0 358 355 351 349 328 322 313 311 309 310 303 295 295 289 286 288 287 284 283 281 277 269 261 270 274 282 291 296 296 292 281 279 276 274 267 265 263 264 266
59 53 26 13 6 360 341 331 326 322 320 319 315 306 304 300 294 292 289 288 290 284 279 280 279 263 268 273 273 285 294 294 289 281 271 268 263 261 259 261 261 260
55 57 34 7 4 347 328 321 316 310 310 314 307 305 299 296 297 295 291 286 282 283 277 282 285 284 283 281 279 285 290 289 283 276 269 264 270 262 259 258 256 260
62 51 29 12 342 325 322 318 314 310 308 310 299 295 293 296 292 289 288 283 277 278 285 284 286 288 288 291 291 292 293 289 285 274 273 270 272 276 266 261 264 266
59 46 8 347 321 318 319 307 300 306 302 300 294 291 291 292 289 284 285 283 282 283 280 279 283 286 288 283 285 287 288 287 280 276 274 275 269 271 277 275 262 261